Weather History for Gilmer, TX

Change the Weather History Date:

Sunday, August 18, 2013

  Actual Average (KGGG) Record (KGGG)
Temperature  
Mean Temperature 78 °F 83 °F  
Max Temperature 93 °F 94 °F 110 °F (1909)
Min Temperature 64 °F 71 °F 56 °F (1992)
Degree Days  
Heating Degree Days 0 0  
Month to date heating degree days 0  
Since 1 June heating degree days 0  
Since 1 July heating degree days 0  
Cooling Degree Days 14 18  
Month to date cooling degree days 331  
Year to date cooling degree days 1721  
Since 1 June cooling degree days 1342  
Growing Degree Days 28 (Base 50)    
Moisture  
Dew Point 63 °F    
Average Humidity 62    
Maximum Humidity 94    
Minimum Humidity 31    
Precipitation  
Precipitation 0.00 in 0.11 in 4.73 in (1915)
Month to date precipitation 1.68  
Year to date precipitation 29.31  
Snow  
Snow 0.00 in - - ()
Month to date snowfall  
Since 1 June snowfall  
Since 1 July snowfall  
Snow Depth -    
Sea Level Pressure  
Sea Level Pressure 30.06 in    
Wind  
Wind Speed 0 mph (North)    
Max Wind Speed 0 mph    
Max Gust Speed -    
Visibility 10 miles    
Events      
T = Trace of Precipitation, MM = Missing Value Source: NWS Daily Summary

Daily Weather History Graph

Daily Weather History Graph

Search for Another Location

Airport:

Trip Planner

Search our weather history database for the weather conditions in past years. The results will help you decide how hot, cold, wet, or windy it might be!

Date:

Astronomy

Aug. 18, 2013 Rise Set
Actual Time 6:45 AM CDT 8:01 PM CDT
Civil Twilight 6:19 AM CDT 8:26 PM CDT
Nautical Twilight 5:48 AM CDT 8:57 PM CDT
Astronomical Twilight 5:17 AM CDT 9:29 PM CDT
Moon 6:04 PM CDT (8/18) 4:00 AM CDT (8/18)
Length of Visible Light 14h 07m
Length of Day
13h 15m
Waxing Gibbous, 92% of the Moon is Illuminated
Aug 18
Waxing Gibbous
Aug 20
Full
Aug 28
Last Quarter
Sep 5
New
Sep 12
First Quarter

Hourly Weather History & Observations

Time (CDT) Temp. Heat Index Dew Point Humidity Pressure Visibility Wind Dir Wind Speed Gust Speed Precip Events Conditions
12:15 AM 73.4 °F - 62.6 °F 69% 30.06 in 10.0 mi Calm Calm - N/A   Clear
12:35 AM 69.8 °F - 62.6 °F 78% 30.06 in 10.0 mi Calm Calm - N/A   Clear
12:55 AM 69.8 °F - 60.8 °F 73% 30.06 in 10.0 mi Calm Calm - N/A   Clear
1:15 AM 68.0 °F - 60.8 °F 78% 30.06 in 10.0 mi Calm Calm - N/A   Clear
1:35 AM 68.0 °F - 62.6 °F 83% 30.06 in 10.0 mi Calm Calm - N/A   Clear
1:55 AM 66.2 °F - 60.8 °F 83% 30.06 in 10.0 mi Calm Calm - N/A   Clear
2:15 AM 66.2 °F - 60.8 °F 83% 30.05 in 7.0 mi Calm Calm - N/A   Clear
2:35 AM 66.2 °F - 62.6 °F 88% 30.05 in 9.0 mi Calm Calm - N/A   Clear
2:55 AM 66.2 °F - 60.8 °F 83% 30.05 in 10.0 mi Calm Calm - N/A   Clear
3:15 AM 66.2 °F - 62.6 °F 88% 30.05 in 10.0 mi Calm Calm - N/A   Clear
3:35 AM 64.4 °F - 62.6 °F 94% 30.05 in 9.0 mi Calm Calm - N/A   Clear
3:55 AM 66.2 °F - 62.6 °F 88% 30.05 in 10.0 mi Calm Calm - N/A   Clear
4:15 AM 66.2 °F - 62.6 °F 88% 30.05 in 10.0 mi Calm Calm - N/A   Clear
4:35 AM 66.2 °F - 62.6 °F 88% 30.05 in 10.0 mi Calm Calm - N/A   Clear
4:55 AM 66.2 °F - 62.6 °F 88% 30.05 in 10.0 mi Calm Calm - N/A   Clear
5:15 AM 66.2 °F - 62.6 °F 88% 30.05 in 10.0 mi Calm Calm - N/A   Clear
5:35 AM 64.4 °F - 62.6 °F 94% 30.05 in 10.0 mi Calm Calm - N/A   Clear
5:55 AM 64.4 °F - 62.6 °F 94% 30.05 in 9.0 mi Calm Calm - N/A   Clear
6:15 AM 64.4 °F - 62.6 °F 94% 30.06 in 7.0 mi Calm Calm - N/A   Partly Cloudy
6:35 AM 64.4 °F - 62.6 °F 94% 30.07 in 8.0 mi Calm Calm - N/A   Scattered Clouds
6:55 AM 64.4 °F - 62.6 °F 94% 30.08 in 6.0 mi Calm Calm - N/A   Partly Cloudy
7:15 AM 64.4 °F - 62.6 °F 94% 30.08 in 5.0 mi Calm Calm - N/A   Clear
7:35 AM 66.2 °F - 64.4 °F 94% 30.09 in 5.0 mi Calm Calm - N/A   Clear
7:55 AM 68.0 °F - 64.4 °F 88% 30.09 in 7.0 mi Calm Calm - N/A   Clear
8:15 AM 71.6 °F - 66.2 °F 83% 30.09 in 9.0 mi Calm Calm - N/A   Clear
8:35 AM 73.4 °F - 66.2 °F 78% 30.10 in 9.0 mi Calm Calm - N/A   Clear
8:55 AM 75.2 °F - 66.2 °F 73% 30.10 in 10.0 mi Calm Calm - N/A   Clear
9:15 AM 75.2 °F - 66.2 °F 73% 30.11 in 10.0 mi Calm Calm - N/A   Clear
9:35 AM 75.2 °F - 66.2 °F 73% 30.11 in 10.0 mi Calm Calm - N/A   Clear
9:55 AM 78.8 °F - 68.0 °F 69% 30.11 in 10.0 mi Calm Calm - N/A   Clear
10:15 AM 80.6 °F 83.2 °F 68.0 °F 65% 30.11 in 10.0 mi Calm Calm - N/A   Clear
10:35 AM 80.6 °F 83.2 °F 68.0 °F 65% 30.11 in 10.0 mi Calm Calm - N/A   Clear
10:55 AM 80.6 °F 82.7 °F 66.2 °F 61% 30.11 in 10.0 mi Calm Calm - N/A   Partly Cloudy
11:15 AM 82.4 °F 84.6 °F 66.2 °F 58% 30.10 in 10.0 mi Calm Calm - N/A   Partly Cloudy
11:35 AM 82.4 °F 84.6 °F 66.2 °F 58% 30.10 in 10.0 mi Calm Calm - N/A   Scattered Clouds
11:55 AM 84.2 °F 85.6 °F 64.4 °F 51% 30.10 in 10.0 mi Calm Calm - N/A   Partly Cloudy
12:15 PM 84.2 °F 85.6 °F 64.4 °F 51% 30.09 in 10.0 mi Calm Calm - N/A   Scattered Clouds
12:35 PM 86.0 °F 86.6 °F 62.6 °F 45% 30.09 in 10.0 mi Calm Calm - N/A   Partly Cloudy
12:55 PM 87.8 °F 88.5 °F 62.6 °F 43% 30.08 in 10.0 mi Calm Calm - N/A   Scattered Clouds
1:15 PM 87.8 °F 88.5 °F 62.6 °F 43% 30.08 in 10.0 mi Calm Calm - N/A   Partly Cloudy
1:35 PM 87.8 °F 87.6 °F 60.8 °F 40% 30.07 in 10.0 mi Calm Calm - N/A   Partly Cloudy
1:55 PM 89.6 °F 89.5 °F 60.8 °F 38% 30.06 in 10.0 mi Calm Calm - N/A   Partly Cloudy
2:15 PM 89.6 °F 89.5 °F 60.8 °F 38% 30.06 in 10.0 mi Calm Calm - N/A   Partly Cloudy
2:35 PM 89.6 °F 88.9 °F 59.0 °F 36% 30.05 in 10.0 mi Calm Calm - N/A   Clear
2:55 PM 91.4 °F 90.7 °F 59.0 °F 34% 30.05 in 10.0 mi Calm Calm - N/A   Clear
3:15 PM 89.6 °F 89.5 °F 60.8 °F 38% 30.04 in 10.0 mi Calm Calm - N/A   Partly Cloudy
3:35 PM 91.4 °F 89.9 °F 57.2 °F 31% 30.03 in 10.0 mi Calm Calm - N/A   Partly Cloudy
3:55 PM 91.4 °F 89.9 °F 57.2 °F 31% 30.03 in 10.0 mi Calm Calm - N/A   Partly Cloudy
4:15 PM 91.4 °F 90.7 °F 59.0 °F 34% 30.03 in 10.0 mi Calm Calm - N/A   Partly Cloudy
4:35 PM 93.2 °F 92.6 °F 59.0 °F 32% 30.03 in 10.0 mi Calm Calm - N/A   Clear
4:55 PM 91.4 °F 90.7 °F 59.0 °F 34% 30.02 in 10.0 mi Calm Calm - N/A   Clear
5:15 PM 91.4 °F 90.7 °F 59.0 °F 34% 30.02 in 10.0 mi Calm Calm - N/A   Clear
5:35 PM 91.4 °F 90.7 °F 59.0 °F 34% 30.02 in 10.0 mi Calm Calm - N/A   Clear
5:55 PM 91.4 °F 91.4 °F 60.8 °F 36% 30.02 in 10.0 mi Calm Calm - N/A   Clear
6:15 PM 89.6 °F 89.5 °F 60.8 °F 38% 30.01 in 10.0 mi Calm Calm - N/A   Clear
6:35 PM 91.4 °F 91.4 °F 60.8 °F 36% 30.01 in 10.0 mi Calm Calm - N/A   Clear
6:55 PM 89.6 °F 90.1 °F 62.6 °F 40% 30.01 in 10.0 mi Calm Calm - N/A   Clear
7:15 PM 89.6 °F 89.5 °F 60.8 °F 38% 30.01 in 10.0 mi Calm Calm - N/A   Clear
7:35 PM 87.8 °F 88.5 °F 62.6 °F 43% 30.01 in 10.0 mi Calm Calm - N/A   Clear
7:55 PM 86.0 °F 86.6 °F 62.6 °F 45% 30.01 in 10.0 mi Calm Calm - N/A   Clear
8:15 PM 84.2 °F 85.0 °F 62.6 °F 48% 30.02 in 10.0 mi Calm Calm - N/A   Clear
8:35 PM 82.4 °F 83.4 °F 62.6 °F 51% 30.02 in 10.0 mi Calm Calm - N/A   Clear
8:55 PM 82.4 °F 83.4 °F 62.6 °F 51% 30.02 in 10.0 mi Calm Calm - N/A   Clear
9:15 PM 80.6 °F 81.8 °F 62.6 °F 54% 30.03 in 10.0 mi Calm Calm - N/A   Clear
9:35 PM 80.6 °F 81.8 °F 62.6 °F 54% 30.04 in 10.0 mi Calm Calm - N/A   Clear
9:55 PM 80.6 °F 81.8 °F 62.6 °F 54% 30.04 in 10.0 mi Calm Calm - N/A   Clear
10:15 PM 78.8 °F - 62.6 °F 57% 30.04 in 10.0 mi Calm Calm - N/A   Clear
10:35 PM 78.8 °F - 64.4 °F 61% 30.05 in 10.0 mi Calm Calm - N/A   Clear
10:55 PM 78.8 °F - 64.4 °F 61% 30.05 in 10.0 mi Calm Calm - N/A   Clear
11:15 PM 78.8 °F - 64.4 °F 61% 30.05 in 10.0 mi Calm Calm - N/A   Partly Cloudy
11:35 PM 78.8 °F - 64.4 °F 61% 30.05 in 10.0 mi Calm Calm - N/A   Partly Cloudy
11:55 PM 78.8 °F - 64.4 °F 61% 30.05 in 10.0 mi Calm Calm - N/A   Clear